sat.trackr.live / text

‹ back to catalog

STARLINK-31132

NORAD 58777 · 2024-011N

PAYLOAD ACTIVE UNKNOWN

§ Identity

Operator
Country
US
Launch date
2024-01-14
Launch site
AFWTR
Launch vehicle
Mass (kg)
RCS (m²)

Purposes: comms

External: N2YO · Heavens-Above · Gunter

§ Orbital elements

Epoch: 2026-09-20T22:22:24.465504Z

Period
94.01 min
Inclination
53.1574°
Eccentricity
0.0001293
Mean motion
15.31700547 rev/d
Perigee alt
469.9 km
Apogee alt
471.6 km
Semi-major
6,848.9 km
B*
2.1467e-5
RAAN
95.0949°
Arg perigee
86.2510°
Mean anomaly
273.8639°
Rev number
15,147

§ Raw data

STARLINK-311321 58777U 24011N   26263.93222761  .00000301  00000+0  21467-4 0  99902 58777  53.1574  95.0949 0001293  86.2510 273.8639 15.31700547151473

JSON: /api/v1/satellites/58777 · /tle

For live sub-satellite position, see the globe view (requires WebGL).

§ Visibility from observer

Set your observer location to see the next 7 days of passes ≥ 10°. The values pass through the URL so the page stays shareable.

No JS? Fill the form by hand. The geolocation button needs JavaScript.